星链-37948(STARLINK-37948)

导读

STARLINK-37948(NORAD 69670)是美国太空探索技术公司(SpaceX)星链(Starlink)低轨宽带通信星座的组成卫星,属于第二代V2 Mini批次组网卫星,当前处于在轨运行状态,部署于约550公里高度的近地轨道。该卫星配备相控阵天线与星间激光通信链路,支持Ku/Ka频段通信及手机直连服务,单星容量达48Gbps,主要为全球偏远、灾害区域及航空、海事等场景提供低时延(20-40毫秒)、高速率的互联网接入服务,是星链万颗级组网实现全球无缝通信覆盖的节点之一。

Basic Information
目录编号:
69670
目录名称:
STARLINK-37948
国际标识:
2026-143X
轨道中心:
EARTH
卫星名称:
星链-37948
卫星全名:
星链-37948(STARLINK-37948)
卫星状态:
在轨 (已飞行75 天)
发射日期:
2026-06-21 UTC
国别 :
美国 (US)
星等 :
--
Orbit Information
数据来源 国际轨道数据 AOE轨道数据
星历时间 2026-09-02T21:17:26+0800
1天前
查看轨道信息
2026-09-02T23:00:00+0800
1天前
查看轨道信息
半长轴 6843.674km 6843.694km
偏心率 0.0000754 0.000077
轨道倾角 97.284° 97.284°
近地点辐角 80.293° 102.611°
升交点赤经 289.022° 289.091°
平近点角 279.840° 290.488°
近地点 465.02km 465.03km
远地点 466.054km 466.084km
周期 93.906分钟 93.906分钟
每日圈数 15.334472 15.334406
Detailed Information
固有亮度:
5
最大亮度:
2.5
卫星平台:
Starlink V1.0
覆盖范围:
全球
运营商:
太空探索技术公司
运营商所在国:
美国
制造商(研发单位):
太空探索技术公司
制造商所在国:
美国
使用方式:
暂无
Satellite Introduction
Starlink 计划是 SpaceX 推出的全球卫星互联网项目,通过发射低轨道卫星,为全球尤其是偏远地区提供高速、低延迟的互联网服务。自 2019 年起,Starlink 已部署数千颗卫星,旨在缩小全球数字鸿沟,推动互联网普及。该项目还为军事、航空等行业提供通信支持,带来广泛经济效益。
2D Orbit Map
3D Orbit Map
Orbit Altitude Analysis Chart
Orbit Inclination Analysis Chart
Orbit Comprehensive Analysis Chart
View Comprehensive Chart
Conjunction Data List
Event ID Objects TCA Miss Dist (km) Collision Risk Probability Collision Risk Index (CRI) Action
CDM_260828-170905-210206-967021
2026-08-28T
17:09:50+0000
2.218 km
极远距离
1.89581E-6 低风险 0.41
CDM_260828-175605-210206-967021
2026-08-28T
17:56:47+0000
2.870 km
极远距离
1.214728E-6 低风险 0.37
CDM_260903-115405-283106-967021
2026-09-03T
11:54:43+0000
3.000 km
极远距离
8.167335E-7 极低风险 0.33